Radiation Dose measured at exhaust stack monitor of Fukushima Daiichi Nuclear Power Station
Date,Time,Unit 5 6 shared exhaust cylinders,Wind Direction,Wind Velocity(m/s)
2023/09/07,00:00,3.6,north-northwest,6.3
2023/09/07,00:10,3.6,northwest,5.9
2023/09/07,00:20,3.5,northwest,6.7
2023/09/07,00:30,3.7,northwest,5.5
2023/09/07,00:40,3.6,north-northwest,6.4
2023/09/07,00:50,3.5,north-northwest,6.1
2023/09/07,01:00,3.7,north-northwest,6.2
2023/09/07,01:10,3.6,northwest,5.7
2023/09/07,01:20,3.8,northwest,7.3
2023/09/07,01:30,3.8,north-northwest,6.4
2023/09/07,01:40,3.7,north-northwest,6.5
2023/09/07,01:50,3.6,north-northwest,5.2
2023/09/07,02:00,3.6,north-northwest,5.3
2023/09/07,02:10,3.7,north-northwest,5.6
2023/09/07,02:20,3.7,north-northwest,3.9
2023/09/07,02:30,3.7,north-northwest,3.8
2023/09/07,02:40,3.7,north-northwest,4.2
2023/09/07,02:50,3.8,north-northwest,4.6
2023/09/07,03:00,3.7,north,2.9
2023/09/07,03:10,3.4,north-northwest,2.0
2023/09/07,03:20,3.6,north-northwest,1.9
2023/09/07,03:30,3.7,north-northwest,3.7
2023/09/07,03:40,3.7,north-northwest,4.6
2023/09/07,03:50,3.7,north-northwest,6.0
2023/09/07,04:00,3.6,northwest,5.0
2023/09/07,04:10,3.5,northwest,4.3
2023/09/07,04:20,3.6,northwest,4.6
2023/09/07,04:30,3.6,northwest,5.5
2023/09/07,04:40,3.6,northwest,6.3
2023/09/07,04:50,3.7,northwest,6.5
2023/09/07,05:00,3.7,northwest,6.5
2023/09/07,05:10,3.7,northwest,7.3
2023/09/07,05:20,3.6,northwest,7.2
2023/09/07,05:30,3.6,northwest,7.4
2023/09/07,05:40,3.6,northwest,6.9
2023/09/07,05:50,3.7,northwest,6.6
2023/09/07,06:00,3.7,northwest,7.5
2023/09/07,06:10,3.5,northwest,6.6
2023/09/07,06:20,3.7,northwest,6.7
2023/09/07,06:30,3.6,northwest,6.3
2023/09/07,06:40,3.7,northwest,5.3
2023/09/07,06:50,3.6,northwest,6.1
2023/09/07,07:00,3.6,northwest,5.1
2023/09/07,07:10,3.6,northwest,5.9
2023/09/07,07:20,3.6,north-northwest,5.9
2023/09/07,07:30,3.6,northwest,5.5
2023/09/07,07:40,3.6,north-northwest,5.2
2023/09/07,07:50,3.7,north-northwest,3.9
2023/09/07,08:00,3.7,north-northwest,5.6
2023/09/07,08:10,3.7,north-northwest,5.8
2023/09/07,08:20,3.7,north,6.1
2023/09/07,08:30,3.7,north-northwest,7.1
2023/09/07,08:40,3.6,north-northwest,5.6
2023/09/07,08:50,3.6,north-northwest,4.8
2023/09/07,09:00,3.8,north,4.7
2023/09/07,09:10,3.8,north-northeast,5.6
2023/09/07,09:20,3.7,north-northeast,5.6
2023/09/07,09:30,3.7,north-northeast,5.6
2023/09/07,09:40,3.6,north-northeast,5.4
2023/09/07,09:50,3.6,north-northeast,5.5
2023/09/07,10:00,3.6,north-northeast,5.7
2023/09/07,10:10,3.7,north-northeast,4.9
2023/09/07,10:20,3.6,north-northeast,5.1
2023/09/07,10:30,3.5,north-northeast,5.2
2023/09/07,10:40,3.7,north-northeast,4.5
2023/09/07,10:50,3.6,north-northeast,4.0
2023/09/07,11:00,3.6,north-northeast,4.1
2023/09/07,11:10,3.6,north-northeast,3.9
2023/09/07,11:20,3.6,north-northeast,4.6
2023/09/07,11:30,3.7,northeast,4.2
2023/09/07,11:40,3.6,northeast,3.7
2023/09/07,11:50,3.8,northeast,4.7
2023/09/07,12:00,3.8,northeast,4.7
2023/09/07,12:10,3.7,northeast,4.4
2023/09/07,12:20,3.6,north-northeast,3.9
2023/09/07,12:30,3.8,northeast,4.2
2023/09/07,12:40,3.8,northeast,4.6
2023/09/07,12:50,3.6,northeast,3.8
2023/09/07,13:00,3.7,northeast,4.0
2023/09/07,13:10,3.7,northeast,3.4
2023/09/07,13:20,3.6,northeast,3.8
2023/09/07,13:30,3.6,northeast,3.4
2023/09/07,13:40,3.7,northeast,3.3
2023/09/07,13:50,3.5,east-northeast,3.2
2023/09/07,14:00,3.6,east-northeast,3.1
2023/09/07,14:10,3.7,northeast,3.1
2023/09/07,14:20,3.7,northeast,3.0
2023/09/07,14:30,3.6,north-northeast,3.3
2023/09/07,14:40,3.6,east-northeast,2.3
2023/09/07,14:50,3.8,east-northeast,2.9
2023/09/07,15:00,3.6,east,3.6
2023/09/07,15:10,3.8,east,3.4
2023/09/07,15:20,3.8,east,2.6
2023/09/07,15:30,3.6,east-southeast,3.1
2023/09/07,15:40,3.7,east-southeast,2.8
2023/09/07,15:50,3.6,east,2.6
2023/09/07,16:00,3.6,east-southeast,2.6
2023/09/07,16:10,3.6,east,3.1
2023/09/07,16:20,3.8,east-southeast,2.8
2023/09/07,16:30,3.6,east-southeast,3.6
2023/09/07,16:40,3.6,east-southeast,3.4
2023/09/07,16:50,3.5,east,2.9
2023/09/07,17:00,3.7,east-northeast,3.5
2023/09/07,17:10,3.5,east,3.3
2023/09/07,17:20,3.7,east-northeast,3.3
2023/09/07,17:30,3.7,east,3.5
2023/09/07,17:40,3.6,east-northeast,3.9
2023/09/07,17:50,3.6,east-northeast,4.1
2023/09/07,18:00,3.7,east,2.8
2023/09/07,18:10,3.6,east-northeast,3.3
2023/09/07,18:20,3.7,east-northeast,2.6
2023/09/07,18:30,3.7,east-northeast,3.2
2023/09/07,18:40,3.7,east-northeast,2.9
2023/09/07,18:50,3.7,east-northeast,1.7
2023/09/07,19:00,3.6,east-northeast,2.6
2023/09/07,19:10,3.7,east-northeast,2.6
2023/09/07,19:20,3.5,east-northeast,3.1
2023/09/07,19:30,3.7,northeast,4.0
2023/09/07,19:40,3.6,east-northeast,4.1
2023/09/07,19:50,3.7,northeast,3.7
2023/09/07,20:00,3.7,east-northeast,4.8
2023/09/07,20:10,3.6,east-northeast,5.2
2023/09/07,20:20,3.8,northeast,4.4
2023/09/07,20:30,3.6,east-northeast,5.8
2023/09/07,20:40,3.6,east-northeast,4.9
2023/09/07,20:50,3.7,east-northeast,4.4
2023/09/07,21:00,3.6,east-northeast,6.0
2023/09/07,21:10,3.9,east-northeast,5.5
2023/09/07,21:20,3.6,northeast,6.1
2023/09/07,21:30,3.6,northeast,6.4
2023/09/07,21:40,3.4,northeast,6.4
2023/09/07,21:50,3.8,east-northeast,5.8
2023/09/07,22:00,3.4,northeast,5.9
2023/09/07,22:10,3.7,east-northeast,6.4
2023/09/07,22:20,3.8,east-northeast,5.8
2023/09/07,22:30,3.6,east-northeast,6.3
2023/09/07,22:40,3.5,east-northeast,6.0
2023/09/07,22:50,3.6,east-northeast,5.6
2023/09/07,23:00,3.6,east-northeast,5.9
2023/09/07,23:10,3.5,east-northeast,4.9
2023/09/07,23:20,3.6,east-northeast,4.6
2023/09/07,23:30,3.5,east,5.1
2023/09/07,23:40,3.6,east-northeast,5.5
2023/09/07,23:50,3.5,east-northeast,5.0
